Location: *
(13.2257°S, 48.7193°W)
Time: 09:39:29
(UTC+00:00)

Cosmos 2242 Rocket - Pass Details

Date: 13 February 2026
Orbit: 614 x 645 km, 82.5° (Epoch: 11 March)

Event Time Altitude Azimuth Distance (km) Brightness Sun altitude
Rises 08:09:57 0° 4° (N) 2,907 6.9 -15.5°
Reaches altitude 10° 08:12:11 10° 8° (N) 2,010 6.1 -15.0°
Maximum altitude 08:16:34 58° 87° (E) 750 4.3 -14.0°
Drops below altitude 10° 08:21:02 10° 165° (SSE) 2,045 6.7 -13.0°
Sets 08:23:19 0° 169° (S) 2,962 7.4 -12.4°
